| time (UTC) | temp C | wind direction | speed KPH | gust KPH | rain 1hr cm | rain 24hr cm | rain mn cm | humidity % | barometer mb |
| 20260903123022 | 20 | 65 | 0.0 | 1.6 | 0.00 | 0.89 | 0.89 | 96 | 1016.5 |
| 20260903121530 | 20 | 82 | 0.0 | 0.0 | 0.00 | 0.89 | 0.89 | 96 | 1016.9 |
| 20260903120008 | 20 | 82 | 0.0 | 0.0 | 0.00 | 0.89 | 0.89 | 96 | 1017.0 |
| 20260903114506 | 20 | 83 | 0.0 | 0.0 | 0.00 | 0.89 | 0.89 | 96 | 1017.0 |
| 20260903113008 | 19 | 82 | 0.0 | 1.6 | 0.00 | 0.89 | 0.89 | 96 | 1017.0 |
| 20260903111504 | 19 | 83 | 0.0 | 0.0 | 0.00 | 0.89 | 0.89 | 96 | 1017.1 |
| 20260903110003 | 19 | 83 | 0.0 | 0.0 | 0.00 | 0.89 | 0.89 | 96 | 1016.9 |
| 20260903104502 | 19 | 83 | 0.0 | 1.6 | 0.00 | 0.89 | 0.89 | 96 | 1016.8 |
| 20260903103101 | 19 | 83 | 0.0 | 0.0 | 0.00 | 0.89 | 0.89 | 96 | 1016.9 |
| 20260903101603 | 18 | 83 | 0.0 | 0.0 | 0.00 | 0.89 | 0.89 | 96 | 1016.5 |
| 20260903100040 | 18 | 83 | 0.0 | 0.0 | 0.00 | 0.89 | 0.89 | 96 | 1016.3 |
| 20260903094538 | 18 | 83 | 0.0 | 0.0 | 0.00 | 0.89 | 0.89 | 96 | 1016.1 |
| 20260903093030 | 18 | 83 | 0.0 | 0.0 | 0.00 | 0.89 | 0.89 | 96 | 1016.3 |
| 20260903091529 | 18 | 83 | 0.0 | 0.0 | 0.00 | 0.89 | 0.89 | 96 | 1016.5 |
| 20260903090024 | 18 | 83 | 0.0 | 0.0 | 0.00 | 0.89 | 0.89 | 96 | 1016.6 |
| 20260903084524 | 18 | 83 | 0.0 | 0.0 | 0.00 | 0.89 | 0.89 | 96 | 1016.5 |
| 20260903083024 | 18 | 83 | 0.0 | 0.0 | 0.00 | 0.89 | 0.89 | 96 | 1016.7 |
| 20260903081520 | 18 | 82 | 0.0 | 0.0 | 0.00 | 0.89 | 0.89 | 95 | 1016.5 |
| 20260903080018 | 18 | 83 | 0.0 | 0.0 | 0.03 | 0.89 | 0.89 | 95 | 1016.9 |
| 20260903074518 | 18 | 332 | 0.0 | 0.0 | 0.03 | 0.89 | 0.89 | 95 | 1017.2 |
| 20260903073008 | 18 | 332 | 0.0 | 0.0 | 0.05 | 0.89 | 0.89 | 95 | 1017.2 |
| 20260903071506 | 18 | 332 | 0.0 | 0.0 | 0.30 | 0.89 | 0.89 | 95 | 1017.3 |
| 20260903070004 | 17 | 332 | 0.0 | 0.0 | 0.79 | 0.86 | 0.86 | 95 | 1017.3 |
| 20260903064503 | 17 | 130 | 0.0 | 3.2 | 0.86 | 0.86 | 0.86 | 94 | 1016.7 |
| 20260903063101 | 17 | 91 | 0.0 | 3.2 | 0.86 | 0.86 | 0.86 | 94 | 1017.1 |
| 20260903061605 | 17 | 86 | 0.0 | 1.6 | 0.66 | 0.66 | 0.66 | 94 | 1018.3 |
| 20260903060055 | 18 | 31 | 0.0 | 0.0 | 0.08 | 0.08 | 0.08 | 93 | 1018.6 |
| 20260903054553 | 18 | 31 | 0.0 | 0.0 | 0.00 | 0.00 | 0.00 | 92 | 1018.9 |
| 20260903053035 | 18 | 31 | 0.0 | 0.0 | 0.00 | 0.00 | 0.00 | 91 | 1019.0 |
| 20260903051533 | 18 | 31 | 0.0 | 1.6 | 0.00 | 0.00 | 0.00 | 90 | 1019.0 |
| 20260903050013 | 18 | 12 | 0.0 | 0.0 | 0.00 | 0.00 | 0.00 | 88 | 1019.4 |
| 20260903044509 | 18 | 12 | 0.0 | 1.6 | 0.00 | 0.00 | 0.00 | 88 | 1019.6 |
| 20260903043048 | 18 | 309 | 0.0 | 1.6 | 0.00 | 0.00 | 0.00 | 88 | 1019.7 |
| 20260903041546 | 18 | 249 | 0.0 | 0.0 | 0.00 | 0.00 | 0.00 | 87 | 1019.9 |
| 20260903040026 | 18 | 91 | 0.0 | 3.2 | 0.00 | 0.00 | 0.00 | 87 | 1019.7 |
| 20260903034537 | 18 | 124 | 0.0 | 6.4 | 0.00 | 0.00 | 0.00 | 86 | 1019.6 |
| 20260903033007 | 18 | 109 | 0.0 | 3.2 | 0.00 | 0.00 | 0.00 | 86 | 1019.1 |
| 20260903031507 | 18 | 64 | 0.0 | 4.8 | 0.00 | 0.00 | 0.00 | 85 | 1019.8 |
| 20260903030045 | 18 | 82 | 0.0 | 3.2 | 0.00 | 0.00 | 0.00 | 85 | 1020.0 |
| 20260903024549 | 18 | 69 | 0.0 | 3.2 | 0.00 | 0.00 | 0.00 | 84 | 1020.4 |
| 20260903023032 | 18 | 124 | 0.0 | 1.6 | 0.00 | 0.00 | 0.00 | 84 | 1020.6 |
| 20260903021532 | 18 | 78 | 0.0 | 1.6 | 0.00 | 0.00 | 0.00 | 83 | 1020.7 |
| 20260903020047 | 18 | 138 | 0.0 | 3.2 | 0.00 | 0.00 | 0.00 | 83 | 1020.9 |
| 20260903014532 | 18 | 281 | 0.0 | 6.4 | 0.00 | 0.00 | 0.00 | 82 | 1020.7 |
| 20260903013029 | 18 | 111 | 0.0 | 4.8 | 0.00 | 0.00 | 0.00 | 82 | 1020.6 |
| 20260903011530 | 18 | 89 | 0.0 | 6.4 | 0.00 | 0.00 | 0.00 | 82 | 1020.8 |
| 20260903010028 | 18 | 243 | 0.0 | 6.4 | 0.00 | 0.00 | 0.00 | 82 | 1020.9 |
| 20260903004527 | 18 | 68 | 0.0 | 0.0 | 0.00 | 0.00 | 0.00 | 82 | 1021.3 |
| 20260903003014 | 18 | 77 | 1.6 | 4.8 | 0.00 | 0.00 | 0.00 | 82 | 1020.9 |
| 20260903001514 | 18 | 79 | 1.6 | 8.0 | 0.00 | 0.00 | 0.00 | 81 | 1020.5 |
| 20260903000013 | 18 | 66 | 0.0 | 6.4 | 0.00 | 0.05 | 0.00 | 82 | 1020.5 |
| 20260902234517 | 18 | 141 | 0.0 | 3.2 | 0.00 | 0.05 | 0.00 | 82 | 1020.7 |
| 20260902233014 | 18 | 46 | 0.0 | 0.0 | 0.00 | 0.05 | 0.00 | 83 | 1021.0 |
| 20260902231515 | 19 | 126 | 0.0 | 1.6 | 0.00 | 0.05 | 0.00 | 82 | 1021.1 |
| 20260902230010 | 19 | 138 | 0.0 | 1.6 | 0.00 | 0.20 | 0.00 | 82 | 1021.5 |
| 20260902224509 | 20 | 134 | 0.0 | 3.2 | 0.00 | 0.20 | 0.00 | 82 | 1021.7 |
| 20260902223058 | 20 | 81 | 0.0 | 1.6 | 0.00 | 0.20 | 0.00 | 81 | 1022.0 |
| 20260902221551 | 20 | 71 | 0.0 | 1.6 | 0.00 | 0.20 | 0.00 | 80 | 1022.1 |
| 20260902220033 | 20 | 87 | 0.0 | 1.6 | 0.00 | 0.20 | 0.00 | 80 | 1022.0 |
| 20260902214533 | 20 | 150 | 0.0 | 4.8 | 0.00 | 0.20 | 0.00 | 78 | 1021.9 |
| 20260902213032 | 20 | 205 | 1.6 | 6.4 | 0.00 | 0.20 | 0.00 | 77 | 1021.7 |
| 20260902211530 | 20 | 282 | 0.0 | 8.0 | 0.00 | 0.20 | 0.00 | 78 | 1021.3 |
| 20260902210030 | 21 | 150 | 0.0 | 9.7 | 0.00 | 0.20 | 0.00 | 77 | 1021.4 |
| 20260902204529 | 21 | 169 | 0.0 | 6.4 | 0.00 | 0.20 | 0.00 | 77 | 1021.2 |
| 20260902203028 | 21 | 89 | 0.0 | 4.8 | 0.00 | 0.20 | 0.00 | 79 | 1021.4 |
| 20260902201529 | 21 | 101 | 0.0 | 8.0 | 0.00 | 0.20 | 0.00 | 78 | 1021.3 |
| 20260902200010 | 21 | 119 | 0.0 | 4.8 | 0.00 | 0.20 | 0.00 | 77 | 1021.5 |
| 20260902194516 | 21 | 115 | 0.0 | 1.6 | 0.00 | 0.20 | 0.00 | 76 | 1022.0 |
| 20260902193057 | 21 | 70 | 0.0 | 3.2 | 0.00 | 0.20 | 0.00 | 75 | 1022.3 |
| 20260902191551 | 21 | 96 | 0.0 | 3.2 | 0.00 | 0.20 | 0.00 | 73 | 1022.1 |
| 20260902190034 | 22 | 65 | 0.0 | 8.0 | 0.00 | 0.20 | 0.00 | 71 | 1022.0 |
| 20260902184533 | 22 | 358 | 0.0 | 8.0 | 0.00 | 0.20 | 0.00 | 70 | 1021.7 |
| 20260902183024 | 22 | 53 | 0.0 | 12.9 | 0.00 | 0.20 | 0.00 | 66 | 1021.9 |
| 20260902181522 | 22 | 103 | 0.0 | 8.0 | 0.00 | 0.20 | 0.00 | 68 | 1022.2 |
| 20260902180022 | 23 | 78 | 0.0 | 4.8 | 0.00 | 0.20 | 0.00 | 68 | 1022.4 |
| 20260902174521 | 22 | 37 | 1.6 | 6.4 | 0.00 | 0.20 | 0.00 | 64 | 1022.5 |
| 20260902173035 | 23 | 111 | 3.2 | 8.0 | 0.00 | 0.20 | 0.00 | 61 | 1022.6 |
| 20260902171518 | 23 | 180 | 0.0 | 6.4 | 0.00 | 0.20 | 0.00 | 67 | 1022.1 |
| 20260902170017 | 22 | 63 | 3.2 | 9.7 | 0.00 | 0.20 | 0.00 | 67 | 1022.1 |
| 20260902164516 | 22 | 131 | 0.0 | 6.4 | 0.00 | 0.20 | 0.00 | 71 | 1022.3 |
| 20260902163015 | 22 | 44 | 3.2 | 8.0 | 0.00 | 0.20 | 0.00 | 69 | 1022.2 |
| 20260902161558 | 22 | 97 | 0.0 | 8.0 | 0.00 | 0.20 | 0.00 | 69 | 1022.4 |
| 20260902160115 | 22 | 89 | 1.6 | 8.0 | 0.00 | 0.20 | 0.00 | 67 | 1022.4 |
| 20260902154547 | 22 | 109 | 1.6 | 8.0 | 0.00 | 0.20 | 0.00 | 69 | 1022.6 |
| 20260902153043 | 22 | 66 | 1.6 | 6.4 | 0.00 | 0.20 | 0.00 | 68 | 1022.6 |
| 20260902151540 | 22 | 71 | 0.0 | 6.4 | 0.00 | 0.20 | 0.00 | 70 | 1022.7 |
| 20260902150039 | 22 | 279 | 0.0 | 1.6 | 0.00 | 0.30 | 0.00 | 68 | 1022.7 |
| 20260902144541 | 21 | 307 | 0.0 | 4.8 | 0.00 | 0.30 | 0.00 | 71 | 1022.7 |
| 20260902143043 | 22 | 53 | 0.0 | 6.4 | 0.00 | 0.30 | 0.00 | 71 | 1022.6 |
| 20260902141535 | 21 | 205 | 0.0 | 1.6 | 0.00 | 0.30 | 0.00 | 76 | 1022.5 |
| 20260902140036 | 20 | 66 | 3.2 | 8.0 | 0.00 | 0.46 | 0.00 | 75 | 1022.6 |
| 20260902134527 | 20 | 55 | 0.0 | 4.8 | 0.00 | 0.46 | 0.00 | 80 | 1022.5 |
| 20260902133023 | 19 | 235 | 0.0 | 8.0 | 0.00 | 0.46 | 0.00 | 83 | 1022.3 |
| 20260902131512 | 18 | 75 | 0.0 | 6.4 | 0.00 | 0.46 | 0.00 | 84 | 1022.2 |
| 20260902130006 | 18 | 63 | 0.0 | 1.6 | 0.00 | 0.48 | 0.00 | 85 | 1022.1 |
| 20260902124505 | 17 | 267 | 0.0 | 1.6 | 0.00 | 0.48 | 0.00 | 88 | 1022.0 |